[Iaude] MPEC S57: 2019 SC2 [a=1.59,e=0.37,i=3.1,H=27.6]

mpec at marsden.cfa.harvard.edu mpec at marsden.cfa.harvard.edu
Sun Sep 22 20:41:18 EDT 2019


M.P.E.C. 2019-S57                            Issued 2019 September 23, 00:39 UT

     The Minor Planet Electronic Circulars contain information on unusual
         minor planets and routine data on comets.  They are published
    on behalf of Division F of the International Astronomical Union by the
          Minor Planet Center, Smithsonian Astrophysical Observatory,
                          Cambridge, MA 02138, U.S.A.

             Prepared using the Tamkin Foundation Computer Network

                              MPC at CFA.HARVARD.EDU
            URL https://www.minorplanetcenter.net/    ISSN 1523-6714

                                    2019 SC2                                    


Observations:
     K19S02C* C2019 09 20.33429 00 02 53.57 +05 11 43.6          22.4 GVES057G96
     K19S02C  C2019 09 20.33941 00 02 55.18 +05 12 16.2          21.1 GVES057G96
     K19S02C  C2019 09 20.34454 00 02 56.83 +05 12 49.6          21.0 GVES057G96
     K19S02C  C2019 09 20.35447 00 03 00.00 +05 13 54.6          21.4 GVES057G96
     K19S02C  C2019 09 20.41803 00 03 20.55 +05 20 39.3          21.2 GVES057G96
     K19S02C  C2019 09 20.41924 00 03 20.96 +05 20 47.3          20.6 GVES057G96
     K19S02C  C2019 09 20.42168 00 03 21.72 +05 21 02.7          19.9 GVES057G96
     K19S02C  C2019 09 20.45907 00 03 34.35 +05 24 57.1          22.4 GVES057G96
     K19S02C  C2019 09 20.45965 00 03 34.44 +05 25 01.7          20.8 GVES057G96
     K19S02C  C2019 09 20.46023 00 03 34.62 +05 25 06.7          21.6 GVES057G96
     K19S02C  C2019 09 20.46081 00 03 34.80 +05 25 09.2          20.9 GVES057G96
     K19S02C  C2019 09 22.23316 00 13 38.75 +08 08 07.0          21.5 GVES057G96
     K19S02C  C2019 09 22.23478 00 13 39.14 +08 08 15.1          21.6 GVES057G96
     K19S02C  C2019 09 22.23803 00 13 39.90 +08 08 30.9          22.1 GVES057G96

Observer details:
G96 Mt. Lemmon Survey.  Observer G. J. Leonard.  Measurers B. M. Africano, E. 
   J. Christensen, G. A. Farneth, D. C. Fuls, A. R. Gibbs, A. D. Grauer, H. 
   Groeller, R. A. Kowalski, S. M. Larson, G. J. Leonard, T. A. Pruyne, D. 
   Rankin, R. L. Seaman, F. C. Shelly.  1.5-m reflector + 10K CCD.

Orbital elements:
2019 SC2                                                 Earth MOID = 0.0120 AU
Epoch 2019 Apr. 27.0 TT = JDT 2458600.5                 Bell
M 303.46406              (2000.0)            P               Q
n   0.49221728     Peri.  328.05067     +0.78526693     +0.61912828
a   1.5886619      Node   353.68668     -0.55596006     +0.70081560
e   0.3730007      Incl.    3.12844     -0.27251469     +0.35431294
P   2.00           H   27.6           G   0.15           U   7
Residuals in seconds of arc
190920 G96  0.1+  0.1+    190920 G96  0.3+  0.1-    190920 G96  0.3-  0.2-
190920 G96  0.2-  0.4-    190920 G96  0.3-  0.2-    190922 G96  0.0   0.2-
190920 G96  0.0   0.2-    190920 G96 (1.8+  1.3-)   190922 G96  0.1+  0.1+
190920 G96  0.0   0.8+    190920 G96  0.2+  0.4-    190922 G96  0.1-  0.1+
190920 G96  0.1+  0.5-    190920 G96  0.0   1.0+

Ephemeris:
2019 SC2                 a,e,i = 1.59, 0.37, 3                   q = 0.9961
Date    TT    R. A. (2000) Decl.     Delta      r    Elong.  Phase     V
2019 08 24    14 25 17.3 -36 01 05   0.07114 0.9971    76.6    99.5    25.5
...
2019 09 08    18 41 09.4 -47 25 40   0.02335 1.0162   110.7    68.1    21.9
...
2019 09 16    23 20 56.0 -06 31 23   0.03018 1.0357   175.4     4.5    20.5
...
2019 09 22    00 12 24.7 +07 50 24   0.05072 1.0540   170.4     9.1    21.9
2019 09 23    00 17 05.1 +09 06 43   0.05452 1.0573   169.5    10.0    22.0
2019 09 24    00 21 08.9 +10 12 21   0.05840 1.0608   168.8    10.6    22.2
...
2019 09 30    00 37 14.8 +14 21 46   0.08290 1.0828   167.6    11.4    23.1
...
2019 10 08    00 47 49.2 +16 42 25   0.1186  1.1160   168.8    10.0    23.9
...
2019 10 23    00 57 38.8 +17 46 18   0.1964  1.1868   166.1    11.6    25.1

A. U. Tomatic                (C) Copyright 2019 MPC           M.P.E.C. 2019-S57




More information about the Iaude mailing list